TRA1113 VNKT-VNLK

Flight info

Callsign TRA1113
Flight time 0h 30m
Altitude 11000
Route IGRIS1D KIMTI DCT VNPL DCT
Aircraft DHC6/L-SDFGR/C

Departure

Time 2026-04-22 22:31
Airport Tribhuvan International Airport (VNKT)

Arrival

Time 2026-04-22 23:01
Airport Tenzing-Hillary Airport (VNLK)
Time Latitude Longitude Altitude Speed Heading
2026-04-22 22:17 27.70658 85.36042 4387 ft 0 kts 70°
2026-04-22 22:26 27.70659 85.36045 4387 ft 1 kts 70°
2026-04-22 22:26 27.70674 85.36043 4387 ft 5 kts 303°
2026-04-22 22:27 27.70643 85.36017 4387 ft 9 kts 164°
2026-04-22 22:27 27.70578 85.36041 4387 ft 11 kts 161°
2026-04-22 22:27 27.70504 85.36069 4387 ft 12 kts 160°
2026-04-22 22:27 27.70493 85.36144 4388 ft 11 kts 78°
2026-04-22 22:28 27.70444 85.36156 4389 ft 10 kts 202°
2026-04-22 22:28 27.70374 85.36124 4427 ft 12 kts 202°
2026-04-22 22:28 27.70294 85.36088 4427 ft 13 kts 201°
2026-04-22 22:28 27.70207 85.36048 4426 ft 14 kts 201°
2026-04-22 22:29 27.70114 85.36006 4426 ft 15 kts 203°
2026-04-22 22:29 27.70015 85.35960 4425 ft 15 kts 201°
2026-04-22 22:29 27.69915 85.35915 4425 ft 15 kts 202°
2026-04-22 22:29 27.69815 85.35869 4425 ft 16 kts 201°
2026-04-22 22:30 27.69713 85.35824 4425 ft 16 kts 202°
2026-04-22 22:30 27.69613 85.35778 4426 ft 15 kts 202°
2026-04-22 22:30 27.69514 85.35739 4426 ft 15 kts 173°
2026-04-22 22:30 27.69473 85.35821 4427 ft 13 kts 59°
2026-04-22 22:31 27.69576 85.35882 4427 ft 35 kts 21°
2026-04-22 22:31 27.69994 85.36071 4430 ft 92 kts 22°
2026-04-22 22:31 27.70607 85.36344 4779 ft 93 kts 22°
2026-04-22 22:31 27.71238 85.36632 5118 ft 101 kts 23°
2026-04-22 22:32 27.71966 85.37031 5218 ft 130 kts 31°
2026-04-22 22:32 27.72735 85.37674 5413 ft 143 kts 42°
2026-04-22 22:32 27.73366 85.38524 5676 ft 136 kts 58°
2026-04-22 22:32 27.73760 85.39443 5928 ft 125 kts 72°
2026-04-22 22:33 27.73975 85.40383 6174 ft 123 kts 78°
2026-04-22 22:33 27.74063 85.41338 6426 ft 122 kts 90°
2026-04-22 22:33 27.73977 85.42286 6657 ft 120 kts 104°
2026-04-22 22:33 27.73810 85.43205 6892 ft 120 kts 102°
2026-04-22 22:34 27.73592 85.44114 7114 ft 120 kts 108°
2026-04-22 22:34 27.73258 85.44951 7348 ft 118 kts 125°
2026-04-22 22:34 27.72712 85.45655 7563 ft 120 kts 140°
2026-04-22 22:34 27.72049 85.46247 7782 ft 123 kts 143°
2026-04-22 22:35 27.71344 85.46798 7999 ft 124 kts 149°
2026-04-22 22:35 27.70578 85.47232 8186 ft 123 kts 160°
2026-04-22 22:35 27.69779 85.47583 8417 ft 123 kts 161°
2026-04-22 22:35 27.68982 85.47946 8652 ft 124 kts 159°
2026-04-22 22:36 27.68200 85.48374 8879 ft 126 kts 153°
2026-04-22 22:36 27.67463 85.48924 9109 ft 128 kts 145°
2026-04-22 22:36 27.66750 85.49536 9351 ft 130 kts 145°
2026-04-22 22:36 27.66015 85.50146 9585 ft 132 kts 147°
2026-04-22 22:37 27.65260 85.50753 9795 ft 134 kts 141°
2026-04-22 22:37 27.64627 85.51521 10004 ft 134 kts 128°
2026-04-22 22:37 27.64149 85.52412 10209 ft 134 kts 118°
2026-04-22 22:37 27.63720 85.53351 10409 ft 134 kts 118°
2026-04-22 22:38 27.63267 85.54275 10619 ft 135 kts 120°
2026-04-22 22:38 27.62821 85.55200 10781 ft 133 kts 116°
2026-04-22 22:38 27.62458 85.56187 10898 ft 140 kts 107°
2026-04-22 22:38 27.62188 85.57278 10960 ft 149 kts 104°
2026-04-22 22:39 27.61901 85.58446 10976 ft 159 kts 106°
2026-04-22 22:39 27.61567 85.59661 10972 ft 165 kts 107°
2026-04-22 22:39 27.61227 85.60909 10992 ft 168 kts 106°
2026-04-22 22:39 27.60892 85.62187 10991 ft 172 kts 106°
2026-04-22 22:40 27.60545 85.63494 10991 ft 175 kts 106°
2026-04-22 22:40 27.60188 85.64822 10979 ft 178 kts 106°
2026-04-22 22:40 27.59831 85.66150 10986 ft 180 kts 107°
2026-04-22 22:40 27.59430 85.67499 10980 ft 182 kts 107°
2026-04-22 22:41 27.59057 85.68869 10975 ft 183 kts 107°
2026-04-22 22:41 27.58596 85.70207 10986 ft 183 kts 111°
2026-04-22 22:41 27.58058 85.71522 10986 ft 186 kts 117°
2026-04-22 22:41 27.57458 85.72822 10969 ft 187 kts 117°
2026-04-22 22:42 27.56876 85.74135 10976 ft 187 kts 116°
2026-04-22 22:42 27.56313 85.75441 10963 ft 187 kts 116°
2026-04-22 22:42 27.55735 85.76757 10965 ft 187 kts 116°
2026-04-22 22:42 27.55153 85.78073 10982 ft 188 kts 116°
2026-04-22 22:43 27.54568 85.79397 10967 ft 189 kts 116°
2026-04-22 22:43 27.53987 85.80723 10962 ft 189 kts 116°
2026-04-22 22:43 27.53448 85.82062 10998 ft 186 kts 113°
2026-04-22 22:43 27.52902 85.83397 10988 ft 189 kts 115°
2026-04-22 22:44 27.52404 85.84765 10983 ft 189 kts 109°
2026-04-22 22:44 27.51983 85.86174 10982 ft 191 kts 107°
2026-04-22 22:44 27.51589 85.87608 10962 ft 191 kts 105°
2026-04-22 22:44 27.51347 85.89072 10970 ft 190 kts 96°
2026-04-22 22:45 27.51190 85.90529 10957 ft 190 kts 96°
2026-04-22 22:45 27.51021 85.92008 10949 ft 190 kts 96°
2026-04-22 22:45 27.50908 85.93486 10963 ft 188 kts 90°
2026-04-22 22:45 27.50884 85.94948 11017 ft 187 kts 89°
2026-04-22 22:46 27.50830 85.96419 11031 ft 189 kts 91°
2026-04-22 22:46 27.50767 85.97896 11042 ft 190 kts 90°
2026-04-22 22:46 27.50715 85.99378 11028 ft 190 kts 90°
2026-04-22 22:46 27.50660 86.00862 10993 ft 189 kts 90°
2026-04-22 22:47 27.50608 86.02335 10995 ft 187 kts 91°
2026-04-22 22:47 27.50545 86.03803 11011 ft 189 kts 91°
2026-04-22 22:47 27.50494 86.05298 10990 ft 192 kts 90°
2026-04-22 22:47 27.50439 86.06803 10963 ft 192 kts 91°
2026-04-22 22:48 27.50380 86.08301 10973 ft 190 kts 91°
2026-04-22 22:48 27.50323 86.09777 10976 ft 191 kts 91°
2026-04-22 22:48 27.50265 86.11276 10962 ft 191 kts 91°
2026-04-22 22:48 27.50209 86.12767 10948 ft 189 kts 91°
2026-04-22 22:49 27.50152 86.14237 10963 ft 187 kts 91°
2026-04-22 22:49 27.50097 86.15702 10984 ft 188 kts 91°
2026-04-22 22:49 27.50042 86.17179 10978 ft 189 kts 91°
2026-04-22 22:49 27.49983 86.18658 11018 ft 189 kts 91°
2026-04-22 22:50 27.49929 86.20137 10988 ft 189 kts 91°
2026-04-22 22:50 27.49868 86.21616 11039 ft 189 kts 92°
2026-04-22 22:50 27.49807 86.23080 11101 ft 190 kts 91°
2026-04-22 22:50 27.49757 86.24575 11054 ft 191 kts 92°
2026-04-22 22:51 27.49706 86.26074 11066 ft 192 kts 91°
2026-04-22 22:51 27.49689 86.27580 11086 ft 193 kts 86°
2026-04-22 22:51 27.49794 86.29081 11086 ft 193 kts 84°
2026-04-22 22:51 27.49898 86.30588 11083 ft 193 kts 85°
2026-04-22 22:52 27.49977 86.32100 11128 ft 193 kts 86°
2026-04-22 22:52 27.50055 86.33613 11064 ft 194 kts 85°
2026-04-22 22:52 27.50145 86.35122 11202 ft 189 kts 85°
2026-04-22 22:52 27.50233 86.36570 11563 ft 181 kts 85°
2026-04-22 22:53 27.50306 86.37941 11930 ft 172 kts 84°
2026-04-22 22:53 27.50376 86.39212 12433 ft 155 kts 84°
2026-04-22 22:53 27.50451 86.40414 12768 ft 155 kts 84°
2026-04-22 22:53 27.50525 86.41673 12935 ft 167 kts 84°
2026-04-22 22:54 27.50595 86.43022 13144 ft 178 kts 84°
2026-04-22 22:54 27.50680 86.44471 13213 ft 191 kts 84°
2026-04-22 22:54 27.50764 86.45997 13239 ft 198 kts 85°
2026-04-22 22:54 27.50855 86.47562 13236 ft 202 kts 84°
2026-04-22 22:55 27.50938 86.49149 13125 ft 202 kts 84°
2026-04-22 22:55 27.51033 86.50697 13103 ft 199 kts 83°
2026-04-22 22:55 27.51203 86.53814 13098 ft 197 kts 83°
2026-04-22 22:56 27.51293 86.55356 13109 ft 197 kts 83°
2026-04-22 22:56 27.51380 86.56890 13042 ft 193 kts 81°
2026-04-22 22:56 27.51847 86.58252 13067 ft 185 kts 51°
2026-04-22 22:56 27.52674 86.59355 13082 ft 184 kts 42°
2026-04-22 22:57 27.53583 86.60369 13089 ft 184 kts 38°
2026-04-22 22:57 27.54581 86.61247 13096 ft 181 kts 31°
2026-04-22 22:57 27.55611 86.62060 13088 ft 181 kts 32°
2026-04-22 22:57 27.56633 86.62922 13006 ft 185 kts 33°
2026-04-22 22:58 27.57661 86.63803 12840 ft 184 kts 33°
2026-04-22 22:58 27.58684 86.64659 12649 ft 182 kts 33°
2026-04-22 22:58 27.59691 86.65496 12533 ft 182 kts 33°
2026-04-22 22:58 27.60683 86.66321 12356 ft 170 kts 35°
2026-04-22 22:59 27.61613 86.67111 11844 ft 166 kts 35°
2026-04-22 22:59 27.62526 86.67899 11300 ft 164 kts 36°
2026-04-22 22:59 27.63339 86.68805 10839 ft 165 kts 49°
2026-04-22 22:59 27.64074 86.69754 10558 ft 158 kts 38°
2026-04-22 23:00 27.65018 86.70287 10324 ft 149 kts 12°
2026-04-22 23:00 27.65813 86.70513 9856 ft 118 kts 14°
2026-04-22 23:00 27.66641 86.70812 9546 ft 127 kts 17°
2026-04-22 23:00 27.67449 86.71168 9251 ft 120 kts 18°
2026-04-22 23:01 27.68071 86.71653 9161 ft 105 kts 58°
2026-04-22 23:01 27.68357 86.72339 9069 ft 92 kts 52°
2026-04-22 23:01 27.68644 86.72877 9282 ft 56 kts 60°
2026-04-22 23:01 27.68728 86.73042 9374 ft 6 kts 59°
2026-04-22 23:02 27.68761 86.73105 9413 ft 12 kts 60°
2026-04-22 23:02 27.68755 86.73168 9422 ft 10 kts 216°
2026-04-22 23:02 27.68749 86.73159 9422 ft 0 kts 239°